.
WxDataArchive / Data Records for 2007-04-19
2007-04-18 April 2007 2007-04-20

Data Records for Thursday, 19 April 2007

Time	Temp	Chill	HIndex	Humid	Dewpt	 Wind 	HiWind	WindDir	Rain 	Barom 
-----	----	-----	------	-----	-----	------	------	-------	-----	----- 
00:00	42.8	42.8	42.8	81	37.4	2	7	112	0.00	29.906 
00:05	42.8	42.8	42.8	81	37.4	1	5	112	0.00	29.908 
00:10	42.8	42.8	42.8	81	37.4	1	5	90	0.00	29.908 
00:15	42.8	42.8	42.8	81	37.4	1	2	90	0.00	29.906 
00:20	42.8	42.8	42.8	81	37.4	1	3	90	0.00	29.904 
00:25	42.8	42.8	42.8	81	37.4	1	3	112	0.00	29.904 
00:30	42.6	42.6	42.6	81	37.2	0	2	68	0.00	29.904 
00:35	42.6	42.6	42.6	82	37.5	0	2	68	0.00	29.900 
00:40	42.6	42.6	42.6	82	37.5	0	2	68	0.00	29.898 
00:45	42.6	42.6	42.6	82	37.5	0	2	90	0.00	29.898 
00:50	42.6	42.6	42.6	83	37.8	0	2	90	0.00	29.898 
00:55	42.6	42.6	42.6	84	38.1	0	1	90	0.00	29.896 
01:00	42.6	42.6	42.6	84	38.1	1	3	135	0.00	29.895 
01:05	42.6	42.6	42.6	84	38.1	0	3	90	0.00	29.897 
01:10	42.6	42.6	42.6	84	38.1	1	4	68	0.00	29.896 
01:15	42.5	42.5	42.5	85	38.3	1	5	68	0.00	29.896 
01:20	42.5	42.5	42.5	85	38.3	1	5	22	0.00	29.895 
01:25	42.5	42.5	42.5	85	38.3	1	4	68	0.00	29.894 
01:30	42.5	42.5	42.5	84	38.0	2	5	112	0.00	29.895 
01:35	42.5	42.5	42.5	84	38.0	1	4	68	0.00	29.894 
01:40	42.5	42.5	42.5	84	38.0	1	4	68	0.00	29.894 
01:45	42.5	42.5	42.5	84	38.0	1	4	112	0.00	29.893 
01:50	42.5	42.5	42.5	84	38.0	1	4	90	0.00	29.892 
01:55	42.5	42.5	42.5	84	38.0	2	4	112	0.00	29.888 
02:00	42.5	42.5	42.5	83	37.7	2	11	90	0.00	29.889 
02:05	42.6	42.6	42.6	83	37.8	1	4	68	0.00	29.890 
02:10	42.6	42.6	42.6	83	37.8	1	3	22	0.00	29.891 
02:15	42.6	42.6	42.6	83	37.8	2	5	135	0.00	29.887 
02:20	42.6	42.6	42.6	82	37.5	2	6	45	0.00	29.885 
02:25	42.6	42.6	42.6	82	37.5	1	6	68	0.00	29.886 
02:30	42.6	42.6	42.6	82	37.5	2	7	112	0.00	29.884 
02:35	42.6	42.6	42.6	82	37.5	2	7	112	0.00	29.885 
02:40	42.6	42.6	42.6	82	37.5	1	5	112	0.00	29.885 
02:45	42.6	42.6	42.6	82	37.5	1	3	68	0.00	29.887 
02:50	42.6	42.6	42.6	82	37.5	1	3	68	0.00	29.888 
02:55	42.6	42.6	42.6	82	37.5	1	3	68	0.00	29.888 
03:00	42.6	42.6	42.6	82	37.5	1	3	68	0.00	29.887 
03:05	42.6	42.6	42.6	82	37.5	1	4	45	0.00	29.889 
03:10	42.6	42.6	42.6	82	37.5	1	4	90	0.00	29.891 
03:15	42.6	42.6	42.6	82	37.5	1	4	68	0.00	29.892 
03:20	42.8	42.8	42.8	81	37.4	1	4	68	0.00	29.894 
03:25	42.8	42.8	42.8	82	37.7	1	4	68	0.00	29.894 
03:30	42.8	42.8	42.8	82	37.7	1	4	45	0.00	29.895 
03:35	42.8	42.8	42.8	82	37.7	1	4	90	0.00	29.895 
03:40	42.8	42.8	42.8	82	37.7	1	6	0	0.00	29.896 
03:45	42.9	42.9	42.9	82	37.8	1	4	90	0.00	29.896 
03:50	42.9	42.9	42.9	82	37.8	1	4	112	0.00	29.898 
03:55	42.9	42.9	42.9	83	38.1	1	3	90	0.00	29.900 
04:00	42.9	42.9	42.9	83	38.1	1	5	45	0.00	29.902 
04:05	42.9	42.9	42.9	83	38.1	1	5	68	0.00	29.901 
04:10	42.9	42.9	42.9	84	38.4	1	4	45	0.00	29.901 
04:15	42.9	42.9	42.9	84	38.4	1	5	112	0.00	29.901 
04:20	42.9	42.9	42.9	83	38.1	1	4	112	0.00	29.901 
04:25	42.9	42.9	42.9	83	38.1	1	5	112	0.00	29.900 
04:30	42.9	42.9	42.9	83	38.1	1	4	68	0.00	29.902 
04:35	42.9	42.9	42.9	83	38.1	1	3	112	0.00	29.906 
04:40	42.9	42.9	42.9	83	38.1	1	6	112	0.00	29.905 
04:45	42.9	42.9	42.9	83	38.1	1	4	90	0.00	29.905 
04:50	42.9	42.9	42.9	82	37.8	1	4	45	0.00	29.905 
04:55	42.9	42.9	42.9	82	37.8	1	4	68	0.00	29.904 
05:00	42.9	42.9	42.9	82	37.8	1	4	112	0.00	29.907 
05:05	42.9	42.9	42.9	81	37.5	2	5	45	0.00	29.908 
05:10	42.9	42.9	42.9	81	37.5	2	6	112	0.00	29.909 
05:15	42.8	42.8	42.8	81	37.4	1	6	90	0.00	29.910 
05:20	42.8	42.8	42.8	81	37.4	1	4	22	0.00	29.910 
05:25	42.8	42.8	42.8	81	37.4	1	5	112	0.00	29.911 
05:30	42.8	42.8	42.8	81	37.4	1	5	112	0.00	29.911 
05:35	42.8	42.8	42.8	81	37.4	2	6	45	0.00	29.911 
05:40	42.8	42.8	42.8	81	37.4	2	6	22	0.00	29.911 
05:45	42.6	42.6	42.6	81	37.2	1	6	45	0.00	29.913 
05:50	42.6	42.6	42.6	81	37.2	1	5	90	0.00	29.916 
05:55	42.6	42.6	42.6	81	37.2	0	3	45	0.00	29.919 
06:00	42.5	42.5	42.5	82	37.4	1	4	68	0.00	29.921 
06:05	42.5	42.5	42.5	82	37.4	0	2	22	0.00	29.924 
06:10	42.5	42.5	42.5	82	37.4	0	1	45	0.00	29.925 
06:15	42.5	42.5	42.5	82	37.4	0	3	135	0.00	29.925 
06:20	42.5	42.5	42.5	83	37.7	0	1	135	0.00	29.927 
06:25	42.5	42.5	42.5	83	37.7	0	2	180	0.00	29.927 
06:30	42.5	42.5	42.5	83	37.7	1	2	135	0.00	29.928 
06:35	42.6	42.6	42.6	83	37.8	0	2	45	0.00	29.929 
06:40	42.6	42.6	42.6	82	37.5	1	4	45	0.00	29.932 
06:45	42.6	42.6	42.6	82	37.5	0	2	45	0.00	29.933 
06:50	42.8	42.8	42.8	82	37.7	1	3	0	0.00	29.936 
06:55	42.8	42.8	42.8	82	37.7	0	3	22	0.00	29.938 
07:00	42.9	42.9	42.9	82	37.8	1	3	22	0.00	29.940 
07:05	43.1	43.1	43.1	81	37.7	1	3	0	0.00	29.943 
07:10	43.2	43.2	43.2	81	37.8	0	3	22	0.00	29.944 
07:15	43.3	43.3	43.3	81	37.9	1	3	22	0.00	29.945 
07:20	43.5	43.5	43.5	81	38.1	1	5	45	0.00	29.945 
07:25	43.6	43.6	43.6	81	38.2	1	3	90	0.00	29.948 
07:30	43.8	43.8	43.8	82	38.7	1	2	45	0.00	29.952 
07:35	43.8	43.8	43.8	83	39.0	1	4	68	0.00	29.955 
07:40	43.9	43.9	43.9	82	38.8	1	4	0	0.00	29.956 
07:45	44.1	44.1	44.1	81	38.6	1	5	112	0.00	29.957 
07:50	44.5	44.5	44.5	81	39.0	2	5	90	0.00	29.958 
07:55	44.9	44.9	44.9	80	39.1	1	4	90	0.00	29.958 
08:00	45.2	45.2	45.2	79	39.1	1	4	135	0.00	29.958 
08:05	45.4	45.4	45.4	78	38.9	1	4	90	0.00	29.959 
08:10	45.5	45.5	45.5	76	38.4	3	9	112	0.00	29.957 
08:15	45.8	45.8	45.8	76	38.7	2	7	45	0.00	29.958 
08:20	46.0	46.0	46.0	75	38.5	3	10	112	0.00	29.960 
08:25	46.1	46.1	46.1	74	38.3	2	6	45	0.00	29.961 
08:30	46.2	46.2	46.2	74	38.4	2	6	90	0.00	29.959 
08:35	46.5	46.5	46.5	74	38.7	2	6	45	0.00	29.960 
08:40	46.8	46.8	46.8	73	38.6	2	8	45	0.00	29.961 
08:45	47.1	47.1	47.1	72	38.5	3	7	68	0.00	29.963 
08:50	47.3	47.3	47.3	72	38.7	2	6	90	0.00	29.968 
08:55	47.6	47.6	47.6	71	38.7	2	6	90	0.00	29.970 
09:00	47.9	47.9	47.9	71	39.0	2	7	112	0.00	29.973 
09:05	47.9	47.9	47.9	69	38.2	3	6	45	0.00	29.977 
09:10	48.0	48.0	48.0	70	38.7	3	10	112	0.00	29.978 
09:15	48.0	48.0	48.0	70	38.7	3	6	112	0.00	29.979 
09:20	48.5	48.5	48.5	71	39.5	2	9	112	0.00	29.979 
09:25	48.8	48.8	48.8	68	38.7	3	8	45	0.00	29.980 
09:30	48.9	48.9	48.9	68	38.8	3	7	112	0.00	29.982 
09:35	48.9	48.9	48.9	67	38.4	3	7	45	0.00	29.983 
09:40	49.6	49.6	49.6	69	39.9	3	11	112	0.00	29.980 
09:45	50.4	50.4	50.4	65	39.1	2	6	45	0.00	29.981 
09:50	50.5	50.5	50.5	66	39.6	3	8	68	0.00	29.983 
09:55	50.2	50.2	50.2	66	39.3	3	10	45	0.00	29.983 
10:00	50.4	50.4	50.4	66	39.5	2	9	90	0.00	29.984 
10:05	50.4	50.4	50.4	65	39.1	3	7	112	0.00	29.984 
10:10	50.5	50.5	50.5	64	38.8	3	9	90	0.00	29.985 
10:15	51.0	51.0	51.0	65	39.7	3	10	45	0.00	29.985 
10:20	51.1	51.1	51.1	64	39.4	3	10	90	0.00	29.985 
10:25	51.4	51.4	51.4	63	39.2	3	7	68	0.00	29.985 
10:30	52.2	52.2	52.2	66	41.2	2	6	90	0.00	29.984 
10:35	52.8	52.8	52.8	61	39.7	3	7	112	0.00	29.984 
10:40	52.6	52.6	52.6	63	40.4	3	7	112	0.00	29.985 
10:45	52.6	52.6	52.6	63	40.4	4	11	112	0.00	29.985 
10:50	52.8	52.8	52.8	62	40.1	2	9	45	0.00	29.985 
10:55	53.5	53.5	53.5	62	40.8	3	9	112	0.00	29.985 
11:00	53.6	53.6	53.6	60	40.1	4	14	112	0.00	29.985 
11:05	54.2	54.2	54.2	63	41.9	4	12	90	0.00	29.987 
11:10	54.1	54.1	54.1	58	39.7	4	11	90	0.00	29.988 
11:15	53.9	53.9	53.9	60	40.3	5	13	112	0.00	29.986 
11:20	54.1	54.1	54.1	57	39.2	5	13	112	0.00	29.987 
11:25	53.8	53.8	53.8	59	39.8	5	14	112	0.00	29.987 
11:30	53.8	53.8	53.8	58	39.4	4	9	112	0.00	29.987 
11:35	54.7	54.7	54.7	57	39.8	2	6	68	0.00	29.984 
11:40	55.6	55.6	55.6	55	39.7	4	11	90	0.00	29.984 
11:45	55.4	55.4	55.4	58	40.9	6	13	90	0.00	29.983 
11:50	55.9	55.9	55.9	59	41.8	3	10	112	0.00	29.983 
11:55	56.0	56.0	56.0	57	41.0	2	7	22	0.00	29.983 
12:00	56.0	56.0	56.0	55	40.1	2	7	22	0.00	29.982 
12:05	56.5	56.5	56.5	58	41.9	4	13	112	0.00	29.981 
12:10	57.3	57.3	57.3	54	40.8	3	6	112	0.00	29.979 
12:15	56.5	56.5	56.5	53	39.6	3	9	112	0.00	29.981 
12:20	56.0	56.0	56.0	55	40.1	2	8	68	0.00	29.983 
12:25	56.2	56.2	56.2	56	40.7	4	12	45	0.00	29.982 
12:30	57.0	57.0	57.0	55	41.0	2	11	45	0.00	29.980 
12:35	57.3	57.3	57.3	53	40.3	3	7	112	0.00	29.980 
12:40	58.0	58.0	58.0	52	40.5	3	6	45	0.00	29.978 
12:45	58.3	58.3	58.3	52	40.8	5	12	112	0.00	29.979 
12:50	58.1	58.1	58.1	53	41.1	5	10	112	0.00	29.980 
12:55	58.4	58.4	58.4	52	40.8	3	11	112	0.00	29.978 
13:00	58.3	58.3	58.3	50	39.7	2	5	68	0.00	29.976 
13:05	57.6	57.6	57.6	51	39.6	3	11	135	0.00	29.977 
13:10	58.0	58.0	58.0	53	41.0	3	8	45	0.00	29.978 
13:15	59.0	59.0	59.0	51	40.9	3	10	112	0.00	29.974 
13:20	59.8	59.8	59.8	48	40.1	3	10	90	0.00	29.971 
13:25	59.9	59.9	59.9	48	40.2	3	7	112	0.00	29.971 
13:30	59.8	59.8	59.8	51	41.6	3	7	90	0.00	29.967 
13:35	60.2	60.2	60.2	44	38.2	3	8	112	0.00	29.968 
13:40	60.7	60.7	60.7	45	39.2	4	12	112	0.00	29.966 
13:45	60.7	60.7	60.7	43	38.1	3	11	112	0.00	29.963 
13:50	60.7	60.7	60.7	42	37.5	4	9	112	0.00	29.963 
13:55	61.0	61.0	61.0	43	38.3	4	12	112	0.00	29.964 
14:00	61.0	61.0	61.0	43	38.3	5	11	112	0.00	29.962 
14:05	60.7	60.7	60.7	40	36.2	7	15	112	0.00	29.962 
14:10	60.7	60.7	60.7	43	38.1	7	18	112	0.00	29.964 
14:15	60.5	60.5	60.5	39	35.4	7	14	90	0.00	29.964 
14:20	60.7	60.7	60.7	40	36.2	5	14	90	0.00	29.965 
14:25	60.9	60.9	60.9	41	37.0	4	10	112	0.00	29.966 
14:30	61.2	61.2	61.2	39	36.0	5	12	112	0.00	29.969 
14:35	61.2	61.2	61.2	41	37.3	6	13	112	0.00	29.968 
14:40	61.5	61.5	61.5	39	36.3	4	9	112	0.00	29.971 
14:45	60.4	60.4	60.4	39	35.3	5	12	90	0.00	29.971 
14:50	60.7	60.7	60.7	43	38.1	3	8	90	0.00	29.971 
14:55	61.3	61.3	61.3	39	36.1	5	12	112	0.00	29.970 
15:00	61.6	61.6	61.6	39	36.4	4	11	112	0.00	29.971 
15:05	61.8	61.8	61.8	39	36.6	3	7	112	0.00	29.971 
15:10	61.6	61.6	61.6	39	36.4	3	6	90	0.00	29.971 
15:15	61.2	61.2	61.2	38	35.4	3	12	112	0.00	29.975 
15:20	61.2	61.2	61.2	41	37.3	6	12	112	0.00	29.974 
15:25	62.0	62.0	62.0	40	37.4	4	11	112	0.00	29.973 
15:30	62.1	62.1	62.1	39	36.8	3	12	112	0.00	29.974 
15:35	62.7	62.7	62.7	38	36.7	2	5	135	0.00	29.972 
15:40	62.6	62.6	62.6	39	37.3	2	5	22	0.00	29.973 
15:45	61.6	61.6	61.6	40	37.0	4	11	112	0.00	29.976 
15:50	61.0	61.0	61.0	40	36.5	2	5	90	0.00	29.976 
15:55	61.5	61.5	61.5	39	36.3	2	6	90	0.00	29.977 
16:00	62.3	62.3	62.3	42	38.9	2	5	112	0.00	29.978 
16:05	62.7	62.7	62.7	37	36.0	2	7	45	0.00	29.977 
16:10	63.1	63.1	63.1	39	37.7	2	7	90	0.00	29.978 
16:15	63.4	63.4	63.4	40	38.7	1	4	90	0.00	29.981 
16:20	63.5	63.5	63.5	39	38.1	1	5	45	0.00	29.979 
16:25	63.4	63.4	63.4	38	37.3	2	7	22	0.00	29.979 
16:30	63.2	63.2	63.2	36	35.8	2	7	22	0.00	29.979 
16:35	62.4	62.4	62.4	38	36.5	3	10	112	0.00	29.980 
16:40	62.0	62.0	62.0	39	36.8	3	6	90	0.00	29.982 
16:45	62.1	62.1	62.1	39	36.8	2	6	112	0.00	29.980 
16:50	61.8	61.8	61.8	38	35.9	4	11	90	0.00	29.983 
16:55	61.6	61.6	61.6	39	36.4	3	7	68	0.00	29.987 
17:00	61.6	61.6	61.6	38	35.7	2	5	45	0.00	29.989 
17:05	61.8	61.8	61.8	39	36.6	2	5	112	0.00	29.988 
17:10	61.8	61.8	61.8	39	36.6	4	8	112	0.00	29.989 
17:15	61.8	61.8	61.8	38	35.9	3	9	112	0.00	29.989 
17:20	61.8	61.8	61.8	36	34.6	5	12	112	0.00	29.990 
17:25	61.6	61.6	61.6	37	35.1	5	18	112	0.00	29.992 
17:30	61.5	61.5	61.5	37	35.0	5	12	112	0.00	29.993 
17:35	61.5	61.5	61.5	39	36.3	3	8	112	0.00	29.994 
17:40	61.5	61.5	61.5	39	36.3	4	10	112	0.00	29.995 
17:45	61.6	61.6	61.6	39	36.4	2	7	22	0.00	29.996 
17:50	61.6	61.6	61.6	40	37.0	3	9	90	0.00	30.001 
17:55	61.2	61.2	61.2	40	36.7	5	13	90	0.00	30.005 
18:00	60.7	60.7	60.7	41	36.9	3	7	45	0.00	30.007 
18:05	60.4	60.4	60.4	44	38.4	4	10	112	0.00	30.010 
18:10	60.4	60.4	60.4	43	37.8	3	10	90	0.00	30.011 
18:15	60.1	60.1	60.1	44	38.1	4	9	112	0.00	30.011 
18:20	59.8	59.8	59.8	44	37.8	2	7	90	0.00	30.011 
18:25	59.5	59.5	59.5	45	38.1	3	7	112	0.00	30.012 
18:30	59.0	59.0	59.0	45	37.7	2	6	112	0.00	30.013 
18:35	58.9	58.9	58.9	45	37.6	3	6	112	0.00	30.014 
18:40	58.7	58.7	58.7	46	38.0	2	6	112	0.00	30.017 
18:45	58.4	58.4	58.4	46	37.7	3	5	112	0.00	30.016 
18:50	58.3	58.3	58.3	46	37.6	3	6	112	0.00	30.019 
18:55	58.0	58.0	58.0	48	38.4	1	4	112	0.00	30.019 
19:00	57.6	57.6	57.6	49	38.6	1	3	112	0.00	30.018 
19:05	57.2	57.2	57.2	49	38.2	1	3	90	0.00	30.018 
19:10	56.9	56.9	56.9	50	38.5	0	3	112	0.00	30.020 
19:15	56.6	56.6	56.6	51	38.7	0	1	112	0.00	30.022 
19:20	56.2	56.2	56.2	51	38.3	0	0	---	0.00	30.025 
19:25	55.7	55.7	55.7	52	38.3	0	0	---	0.00	30.027 
19:30	55.1	55.1	55.1	53	38.3	0	0	---	0.00	30.028 
19:35	54.5	54.5	54.5	54	38.2	0	0	---	0.00	30.028 
19:40	53.9	53.9	53.9	55	38.1	0	0	---	0.00	30.031 
19:45	53.3	53.3	53.3	56	38.0	0	0	---	0.00	30.034 
19:50	52.8	52.8	52.8	58	38.4	0	1	112	0.00	30.036 
19:55	52.5	52.5	52.5	58	38.2	0	0	---	0.00	30.037 
20:00	52.5	52.5	52.5	58	38.2	1	2	112	0.00	30.042 
20:05	52.8	52.8	52.8	57	38.0	1	3	112	0.00	30.043 
20:10	52.9	52.9	52.9	56	37.6	1	2	112	0.00	30.045 
20:15	52.8	52.8	52.8	56	37.5	0	2	112	0.00	30.045 
20:20	52.6	52.6	52.6	56	37.4	0	2	112	0.00	30.046 
20:25	52.5	52.5	52.5	57	37.7	0	1	112	0.00	30.049 
20:30	52.2	52.2	52.2	57	37.4	0	1	112	0.00	30.055 
20:35	51.9	51.9	51.9	58	37.6	0	0	---	0.00	30.058 
20:40	51.6	51.6	51.6	58	37.3	0	0	---	0.00	30.059 
20:45	51.1	51.1	51.1	58	36.8	0	0	---	0.00	30.063 
20:50	50.5	50.5	50.5	59	36.7	0	0	---	0.00	30.069 
20:55	50.1	50.1	50.1	60	36.8	0	0	---	0.00	30.073 
21:00	49.5	49.5	49.5	62	37.0	0	1	112	0.00	30.076 
21:05	49.2	49.2	49.2	62	36.7	0	1	112	0.00	30.077 
21:10	49.1	49.1	49.1	62	36.6	0	0	---	0.00	30.079 
21:15	48.9	48.9	48.9	62	36.5	0	2	112	0.00	30.080 
21:20	49.1	49.1	49.1	62	36.6	0	1	112	0.00	30.082 
21:25	49.5	49.5	49.5	61	36.6	1	3	112	0.00	30.083 
21:30	49.9	49.9	49.9	61	37.0	1	3	112	0.00	30.084 
21:35	50.1	50.1	50.1	61	37.2	1	3	112	0.00	30.085 
21:40	50.1	50.1	50.1	61	37.2	1	3	112	0.00	30.087 
21:45	49.9	49.9	49.9	62	37.4	1	3	112	0.00	30.090 
21:50	49.8	49.8	49.8	62	37.3	2	5	90	0.00	30.091 
21:55	49.6	49.6	49.6	63	37.5	2	4	90	0.00	30.090 
22:00	49.2	49.2	49.2	64	37.5	3	5	112	0.00	30.091 
22:05	48.9	48.9	48.9	65	37.7	3	5	90	0.00	30.089 
22:10	48.6	48.6	48.6	66	37.8	3	6	90	0.00	30.090 
22:15	48.3	48.3	48.3	66	37.5	2	4	112	0.00	30.090 
22:20	48.2	48.2	48.2	67	37.8	2	7	90	0.00	30.092 
22:25	47.9	47.9	47.9	67	37.5	2	5	90	0.00	30.093 
22:30	47.7	47.7	47.7	67	37.3	2	4	90	0.00	30.094 
22:35	47.7	47.7	47.7	67	37.3	2	4	90	0.00	30.093 
22:40	47.6	47.6	47.6	67	37.2	2	5	90	0.00	30.093 
22:45	47.6	47.6	47.6	67	37.2	2	3	90	0.00	30.095 
22:50	47.6	47.6	47.6	67	37.2	2	4	90	0.00	30.096 
22:55	47.6	47.6	47.6	67	37.2	2	3	112	0.00	30.096 
23:00	47.6	47.6	47.6	67	37.2	2	3	90	0.00	30.097 
23:05	47.6	47.6	47.6	66	36.8	1	3	90	0.00	30.095 
23:10	47.4	47.4	47.4	66	36.6	1	3	90	0.00	30.094 
23:15	47.4	47.4	47.4	66	36.6	1	2	90	0.00	30.100 
23:20	47.3	47.3	47.3	67	36.9	1	2	90	0.00	30.103 
23:25	47.1	47.1	47.1	68	37.1	1	3	90	0.00	30.104 
23:30	46.8	46.8	46.8	68	36.8	1	2	90	0.00	30.106 
23:35	46.5	46.5	46.5	69	36.9	1	2	90	0.00	30.106 
23:40	46.4	46.4	46.4	69	36.8	1	3	90	0.00	30.106 
23:45	46.2	46.2	46.2	69	36.6	1	4	112	0.00	30.105 
23:50	46.1	46.1	46.1	70	36.9	1	4	90	0.00	30.107 
23:55	46.1	46.1	46.1	70	36.9	1	2	112	0.00	30.107 

CoCoRaHS
IN-AL-39
A2 Web Hosting
Creative Commons License
GoDaddy
Look for:

loaded 2017-12-13 20:02:45 • last modified 2010-11-18 10:43:29
Privacy PolicyDisclaimer
• wx.awcolley.com is powered by PmWiki v.2002016 •
• all content (unless otherwise noted) © 2017 A W Colley